Regional Weather Roundup
Issued by NWS

Home | Current Version | Previous Version | Text Only | Print | Product List | Glossary On
Versions: 1 2 3 4 5 6 7 8 9 10 11 12 13 14 15 16 17 18 19 20 21 22 23 24 25 26 27 28 29 30 31 32 33 34 35 36 37 38 39 40 41 42 43 44 45 46 47 48 49 50
000
ASUS46 KSTO 122215
RWRCA

NORTHERN AND CENTRAL CA REGIONAL WEATHER ROUNDUP
NATIONAL WEATHER SERVICE SACRAMENTO CA
200 PM PST TUE DEC 12 2017

NOTE: FAIR INDICATES FEW OR NO CLOUDS BELOW 12,000 FEET WITH NO
SIGNIFICANT WEATHER AND/OR OBSTRUCTIONS TO VISIBILITY.

CAZ001-003-122300-
NORTHWEST AREA

CITY           SKY/WX    TMP DP  RH WIND       PRES   REMARKS
CRESCENT CITY  SUNNY     58  39  49 N6        30.30F
UKIAH          SUNNY     63  31  30 CALM      30.24F
$$

CAZ006-505>513-122300-
BAY AREA

CITY           SKY/WX    TMP DP  RH WIND       PRES   REMARKS
SANTA ROSA     MOSUNNY   61  37  41 CALM      30.21F
SAN RAFAEL     N/A       58  MM  MM MISG
NAPA           SUNNY     63  36  36 E3        30.23F
CONCORD        SUNNY     65  40  39 NE5       30.24F
OAKLAND CITY   N/A      MM  MM  MM MISG
OAKLAND        MOSUNNY   59  46  62 NW8       30.23F
SAN FRAN CITY  N/A       60  MM  41 MISG
SAN FRAN ARPT  MOSUNNY   59  48  67 N3        30.22F
LIVERMORE      SUNNY     65  37  35 E10       30.22F
HAYWARD        SUNNY     62  38  40 W9        30.22F
REDWOOD CITY   N/A       66  MM  33 MISG
MOFFETT ARPT   SUNNY     64  47  53 N5        30.23F
SAN JOSE ARPT  MOSUNNY   65  36  34 NW7       30.22F
$$
CAZ034-037-514>518-122300-
CENTRAL COAST

CITY           SKY/WX    TMP DP  RH WIND       PRES   REMARKS
WATSONVILLE    SUNNY     73  35  25 CALM      30.18F
SALINAS        SUNNY     71  26  18 CALM      30.16F
MONTEREY       SUNNY     63  42  46 NW7       30.19S
SAN LUIS OBISP SUNNY     86  29  12 N6        30.09F
SANTA MARIA    SUNNY     81  17   9 NW6       30.09F
$$
CAZ015-016-122300-
NORTHERN SACRAMENTO VALLEY

CITY           SKY/WX    TMP DP  RH WIND       PRES   REMARKS
REDDING        SUNNY     67  32  27 CALM      30.22F
RED BLUFF      SUNNY     67  25  20 N6        30.24F
OROVILLE       SUNNY     57  36  45 CALM      30.26F
$$
CAZ016>018-122300-
SOUTHERN SACRAMENTO VALLEY

CITY           SKY/WX    TMP DP  RH WIND       PRES   REMARKS
AUBURN         SUNNY     61  36  39 W3        30.24F
BEALE AFB      SUNNY     60  39  46 CALM      30.23F
LINCOLN        FAIR      59  36  41 W3        30.24F
MARYSVILLE     SUNNY     60  35  39 CALM      30.25F
SAC INTL ARPT  SUNNY     60  39  45 N3        30.24F
MATHER AIRPORT SUNNY     61  39  44 W3        30.24F
DOWNTOWN SAC   N/A       62  MM  MM MISG
SAC EXEC ARPT  SUNNY     60  40  47 CALM      30.24F
VACAVILLE      SUNNY     63  35  35 VRB3      30.25F
TRAVIS AFB     SUNNY     61  36  39 NE6       30.23F
$$
CAZ019>021-122300-
SAN JOAQUIN VALLEY

CITY           SKY/WX    TMP DP  RH WIND       PRES   REMARKS
STOCKTON       SUNNY     63  42  46 VRB3      30.24F
MODESTO        SUNNY     61  41  47 N6        30.23F
MERCED         SUNNY     62  37  39 VRB3      30.22F
LEMOORE        MOSUNNY   64  35  34 CALM      30.23F HAZE
FRESNO         SUNNY     62  38  40 W3        30.23F HAZE
HANFORD        SUNNY     61  37  41 CALM      30.23F HAZE
PORTERVILLE    SUNNY     64  37  36 CALM      30.23F HAZE
BAKERSFIELD    SUNNY     63  35  35 SW5       30.22F HAZE
$$
CAZ011-012-071-122300-
NORTHERN MOUNTAINS

CITY           SKY/WX    TMP DP  RH WIND       PRES   REMARKS
YREKA          SUNNY     41  26  55 CALM      30.44F
MOUNT SHASTA   SUNNY     45  23  42 VRB6G20   30.36F
ALTURAS        SUNNY     47  21  35 W6        30.39F
$$
CAZ011-012-071-122300-
SIERRA NEVADA MTNS

CITY           SKY/WX    TMP DP  RH WIND       PRES   REMARKS
BLUE CANYON    SUNNY     68  20  16 NW3       30.34F
TRUCKEE        SUNNY     48  18  29 CALM      30.42F
TAHOE VLY ARPT SUNNY     48  28  46 N5        30.41F
MAMMOTH LAKES  FAIR      57  -4   8 CALM      30.44F
$$



USA.gov is the U.S. government's official web portal to all federal, state and local government web resources and services.